Pagina principale
METAR-TAF:

METAR-TAF

Aeroporti :

Danbury Municipal Airport

Danbury, Connecticut, Stati Uniti

latitudine: 41-22-18N, longitudine: 073-29-04W, altezza: 139 m

Osservazione

Il bollettino è stato emesso 26 minuti fa, alle 07:53 UTC
Vento calmo
Temperature 21°C
Umidità 94%
Pressione 1016 hPa
Visibilità: 9.7 km
Cielo sereno
foschia

METAR: KDXR 160753Z AUTO 00000KT 6SM BR CLR 21/20 A3001 RMK AO2 SLP157 T02060200

Ora: 04:19 (08:19 UTC)


TAF: mancante

Osservazioni e previsioni meteorologiche di più di 4000 aeroporti (messaggi METAR e TAF).

Le stazioni disponibili sono rappresentate dai dischi gialli e rossi sulla carta.

Puntare il mouse per vedere il nome della stazione.

Clicca sopra per visualizzare le osservazioni e previsioni meteorologiche.

Per cambiare la mappa : fare clic sui pulsanti verdi con una croce nera per ingrandire, il pulsante verde con un trattino per diminuire, o sulla freccia verde per le mappe adiacenti.


METAR-TAF: